Weather History for Spokane Felts, WA

Change the Weather History Date:

Saturday, September 28, 2013

  Actual Average Record
Temperature  
Mean Temperature 56 °F 56 °F  
Max Temperature 61 °F 69 °F 83 °F (2010)
Min Temperature 50 °F 42 °F 30 °F (1999)
Degree Days  
Heating Degree Days 9 10  
Month to date heating degree days 105 146  
Since 1 July heating degree days 110 192  
Cooling Degree Days 0 0  
Month to date cooling degree days 101 29  
Year to date cooling degree days 704 405  
Growing Degree Days 6 (Base 50)    
Moisture  
Dew Point 49 °F    
Average Humidity 75    
Maximum Humidity 89    
Minimum Humidity 60    
Precipitation  
Precipitation 0.38 in 0.03 in 0.38 in (2013)
Month to date precipitation 1.75 0.77  
Year to date precipitation 11.43 11.51  
Sea Level Pressure  
Sea Level Pressure 29.72 in    
Wind  
Wind Speed 11 mph (South)    
Max Wind Speed 24 mph    
Max Gust Speed 35 mph    
Visibility 9 miles    
Events Rain    
T = Trace of Precipitation, MM = Missing Value Source: NWS Daily Summary

Daily Weather History Graph

Daily Weather History Graph

Search for Another Location

Airport:

Trip Planner

Search our weather history database for the weather conditions in past years. The results will help you decide how hot, cold, wet, or windy it might be!

Date:

Astronomy

Sep. 28, 2013 Rise Set
Actual Time 6:44 AM PDT 6:34 PM PDT
Civil Twilight 6:13 AM PDT 7:04 PM PDT
Nautical Twilight 5:38 AM PDT 7:40 PM PDT
Astronomical Twilight 5:01 AM PDT 8:17 PM PDT
Moon 12:14 AM PDT (9/28) 3:15 PM PDT (9/28)
Length of Visible Light 12h 50m
Length of Day
11h 49m
Waning Crescent, 35% of the Moon is Illuminated
Sep 28
Waning Crescent
Oct 4
New
Oct 11
First Quarter
Oct 18
Full
Oct 26
Last Quarter

Hourly Weather History & Observations

Time (PDT) Temp. Dew Point Humidity Pressure Visibility Wind Dir Wind Speed Gust Speed Precip Events Conditions
12:53 AM 50.0 °F 46.0 °F 86% 29.92 in 10.0 mi Calm Calm - N/A   Overcast
1:53 AM 51.1 °F 45.0 °F 80% 29.91 in 10.0 mi SSW 5.8 mph - N/A   Overcast
2:53 AM 51.1 °F 45.0 °F 80% 29.89 in 10.0 mi South 5.8 mph - N/A   Overcast
3:53 AM 52.0 °F 45.0 °F 77% 29.88 in 10.0 mi Calm Calm - N/A   Overcast
4:53 AM 52.0 °F 46.0 °F 80% 29.86 in 10.0 mi SSW 8.1 mph - N/A   Overcast
5:53 AM 52.0 °F 46.0 °F 80% 29.85 in 10.0 mi SSW 9.2 mph - N/A   Overcast
6:27 AM 51.8 °F 48.2 °F 88% 29.84 in 10.0 mi Calm Calm - 0.01 in Rain Light Rain
6:53 AM 51.1 °F 48.0 °F 89% 29.83 in 10.0 mi Calm Calm - 0.02 in Rain Light Rain
7:53 AM 51.1 °F 48.9 °F 92% 29.81 in 2.5 mi East 3.5 mph - 0.06 in Rain Light Rain
8:53 AM 53.1 °F 48.9 °F 86% 29.79 in 3.0 mi South 8.1 mph - 0.02 in Rain Light Rain
9:53 AM 54.0 °F 50.0 °F 86% 29.77 in 3.0 mi South 10.4 mph 19.6 mph 0.02 in Rain Light Rain
10:00 AM 55.4 °F 50.0 °F 82% 29.77 in 10.0 mi SSW 11.5 mph - 0.00 in Rain Light Rain
10:53 AM 55.9 °F 51.1 °F 84% 29.75 in 9.0 mi South 8.1 mph - 0.02 in Rain Light Rain
11:00 AM 55.4 °F 51.8 °F 88% 29.75 in 8.0 mi South 12.7 mph 20.7 mph 0.00 in Rain Light Rain
11:53 AM 57.0 °F 51.1 °F 81% 29.73 in 10.0 mi SSW 15.0 mph 23.0 mph 0.01 in Rain Light Rain
12:53 PM 59.0 °F 52.0 °F 78% 29.70 in 10.0 mi South 16.1 mph 28.8 mph 0.00 in   Overcast
1:53 PM 59.0 °F 51.1 °F 75% 29.68 in 10.0 mi SSW 16.1 mph 28.8 mph 0.00 in Rain Light Rain
2:53 PM 59.0 °F 52.0 °F 78% 29.68 in 10.0 mi South 17.3 mph 23.0 mph 0.01 in Rain Light Rain
3:53 PM 57.9 °F 52.0 °F 81% 29.66 in 10.0 mi South 11.5 mph 21.9 mph 0.01 in Rain Light Rain
4:53 PM 57.9 °F 51.1 °F 78% 29.65 in 7.0 mi South 11.5 mph 24.2 mph 0.03 in Rain Light Rain
5:53 PM 57.9 °F 51.1 °F 78% 29.62 in 10.0 mi SSW 18.4 mph 27.6 mph 0.01 in Rain Light Rain
6:53 PM 57.9 °F 48.9 °F 72% 29.58 in 10.0 mi South 11.5 mph 19.6 mph 0.00 in   Mostly Cloudy
7:53 PM 60.1 °F 48.0 °F 64% 29.54 in 10.0 mi SSE 15.0 mph 28.8 mph N/A   Scattered Clouds
8:53 PM 61.0 °F 46.9 °F 60% 29.51 in 10.0 mi South 18.4 mph 33.4 mph N/A   Mostly Cloudy
9:53 PM 60.1 °F 46.9 °F 62% 29.48 in 10.0 mi South 12.7 mph 23.0 mph 0.00 in   Overcast
10:53 PM 59.0 °F 48.0 °F 67% 29.45 in 10.0 mi South 11.5 mph 32.2 mph 0.01 in   Overcast
11:53 PM 57.0 °F 50.0 °F 77% 29.48 in 6.0 mi SSW 15.0 mph 34.5 mph 0.05 in Rain Rain